Flag for U.S.A. Weather past 2 weeks in Sandpoint, Idaho, U.S.A.

Now
86 °F

Sunny.


Feels Like: 85 °F
Forecast: 58 / 88 °F
Wind: No wind

Location: Sandpoint Airport

Current Time: Jun 29, 2015 at 5:16:23 PM

Latest Report: Jun 29, 2015 at 4:55 PM


Visibility: 10 mi

Pressure: 29.94 "Hg

Humidity: 35%

Dew point: 55 °F

Location of SandpointLocation

Historic Weather in Sandpoint — Graph

°F

Sandpoint temperature yesterday

Maximum temperature yesterday: 100 °F (at 3:15 PM)
Minimum temperature yesterday: 59 °F (at 5:15 AM)
Average temperature yesterday: 79 °F

Past Weeks' High & Low Weather Summary

 TemperatureHumidityPressure
High100 °F (Jun 28, 3:15 PM)94% (Jun 26, 4:15 AM)30.15 "Hg (Jun 26, 4:15 AM)
Low43 °F (Jun 20, 4:55 AM)13% (Jun 28, 3:55 PM)29.80 "Hg (Jun 18, 6:15 PM)
Average67 °F49%29.98 "Hg
* Reported Jun 14 4:15 PM — Jun 29 4:15 PM, Sandpoint, Weather by CustomWeather, © 2015

Note: Actual official high and low records may vary slightly from our data, if they occured in-between our weather recording intervals... More about our weather records

Advertising

Sandpoint weather history for previous 24 hours

 ConditionsComfort  
Time TempWeatherWind HumidityBarometerVisibility
4:15 PM
Mon, Jun 29
82 °FSunny.5 mph45%29.96 "Hg10 mi
3:55 PM82 °FSunny.3 mph45%29.96 "Hg10 mi
3:35 PM81 °FScattered clouds.7 mph51%29.96 "Hg10 mi
3:15 PM81 °FDrizzle. Broken clouds.8 mph51%29.96 "Hg10 mi
2:35 PM81 °FLight rain. Broken clouds.3 mph62%30.00 "Hg10 mi
2:15 PM82 °FPartly sunny.No wind48%29.98 "Hg10 mi
1:55 PM84 °FScattered clouds.5 mph48%29.97 "Hg10 mi
1:15 PM84 °FSunny.No wind43%29.97 "Hg10 mi
12:55 PM84 °FSunny.5 mph43%29.97 "Hg10 mi
12:35 PM84 °FSunny.3 mph43%29.98 "Hg10 mi
12:15 PM86 °FSunny.5 mph40%29.98 "Hg10 mi
11:55 AM84 °FSunny.No wind43%29.98 "Hg10 mi
11:35 AM86 °FSunny.6 mph40%29.97 "Hg10 mi
11:15 AM86 °FSunny.8 mph43%29.96 "Hg10 mi
10:55 AM88 °FSunny.8 mph35%29.96 "Hg10 mi
10:15 AM81 °FSunny.10 mph48%29.96 "Hg10 mi
9:55 AM79 °FSunny.12 mph54%29.96 "Hg10 mi
9:15 AM73 °FScattered clouds.3 mph69%29.99 "Hg10 mi
8:55 AM75 °FSunny.No wind61%30.00 "Hg10 mi
8:15 AM75 °FSunny.5 mph57%30.00 "Hg10 mi
7:55 AM77 °FSunny.9 mph54%29.99 "Hg10 mi
7:15 AM77 °FSunny.6 mph51%30.00 "Hg10 mi
6:55 AM79 °FSunny.5 mph45%29.99 "Hg10 mi
6:35 AM75 °FSunny.8 mph57%30.00 "Hg10 mi
6:15 AM73 °FSunny.13 mph57%30.00 "Hg10 mi
5:55 AM73 °FSunny.3 mph53%29.94 "Hg10 mi
5:35 AM75 °FClear.7 mph50%29.92 "Hg10 mi
5:15 AM75 °FClear.9 mph50%29.91 "Hg10 mi
4:55 AM75 °FPassing clouds.13 mph50%29.91 "Hg10 mi
4:15 AM75 °FClear.No wind50%29.94 "Hg10 mi
3:55 AM75 °FClear.No wind50%29.94 "Hg10 mi
3:35 AM77 °FClear.3 mph47%29.92 "Hg10 mi
3:15 AM77 °FClear.7 mph44%29.90 "Hg10 mi
2:55 AM77 °FClear.6 mph47%29.91 "Hg10 mi
2:15 AM70 °FClear.6 mph64%29.88 "Hg10 mi
1:55 AM70 °FClear.No wind64%29.87 "Hg10 mi
1:15 AM72 °FClear.No wind57%29.87 "Hg10 mi
12:55 AM72 °FClear.No wind57%29.88 "Hg10 mi
12:35 AM70 °FClear.3 mph60%29.88 "Hg10 mi
12:15 AM73 °FClear.No wind53%29.88 "Hg10 mi
11:55 PM
Sun, Jun 28
70 °FClear.No wind60%29.87 "Hg10 mi
11:15 PM70 °FClear.No wind60%29.88 "Hg10 mi
10:55 PM70 °FClear.No wind64%29.88 "Hg10 mi
10:15 PM73 °FClear.No wind57%29.88 "Hg10 mi
9:55 PM72 °FClear.5 mph65%29.88 "Hg10 mi
9:35 PM75 °FSunny.No wind57%29.88 "Hg10 mi
9:15 PM77 °FSunny.3 mph54%29.88 "Hg10 mi
8:55 PM79 °FSunny.No wind48%29.87 "Hg10 mi
8:15 PM79 °FSunny.3 mph51%29.88 "Hg10 mi
7:55 PM82 °FSunny.No wind51%29.88 "Hg10 mi
7:35 PM86 °FSunny.No wind43%29.87 "Hg10 mi
7:15 PM86 °FSunny.No wind46%29.88 "Hg10 mi
5:15 PM99 °FSunny.5 mph16%29.89 "Hg10 mi
Weather by CustomWeather, © 2015

See weather overviewHow to use our weather pages